This demonstration page uses our WeatherBlox Daily Observations layout. Learn more.

Left ArrowRight Arrow

41.86663, -103.66717

Hourly Observations for November 26, 2021

Temp ( °F °C ) Dew Point ( °F °C ) Humidity (%) Winds ( mph kmh ) Pressure ( in mb ) Visibility ( mi km ) Precip ( " mm )
12:53 am 00:53 Clear 35 1.7 13 -10.6 40 40 NW 6 9 30.14 1021 10 16 0.00 0.00
1:53 am 01:53 Clear 37 2.8 13 -10.6 37 37 WNW 7 11 30.13 1020 10 16 0.00 0.00
2:53 am 02:53 Clear 43 6.1 10 -12.2 26 26 WNW 8 13 30.10 1019 10 16 0.00 0.00
3:53 am 03:53 Clear 43 6.1 10 -12.2 26 26 W 10 17 30.09 1019 10 16 0.00 0.00
4:53 am 04:53 Clear 47 8.3 7 -13.9 19 19 WNW 9 15 30.08 1019 10 16 0.00 0.00
5:53 am 05:53 Clear 46 7.8 7 -13.9 20 20 WNW 13 20 30.09 1019 10 16 0.00 0.00
6:53 am 06:53 Clear 47 8.3 6 -14.4 19 19 NW 10 17 30.07 1018 10 16 0.00 0.00
7:53 am 07:53 Sunny 47 8.3 8 -13.3 20 20 WNW 16 26 30.06 1018 10 16 0.00 0.00
8:53 am 08:53 Sunny 50 10 10 -12.2 20 20 W 14 22 30.05 1018 10 16 0.00 0.00
9:53 am 09:53 Sunny 57 13.9 10 -12.2 15 15 WNW 16 26 30.02 1017 10 16 0.00 0.00
10:53 am 10:53 Sunny 62 16.7 9 -12.8 12 12 WNW 21 33 30.00 1016 10 16 0.00 0.00
11:53 am 11:53 Sunny 64 17.8 8 -13.3 11 11 W 21 33 29.96 1015 10 16 0.00 0.00
12:53 pm 12:53 Sunny 63 17.2 10 -12.2 12 12 WNW 14 22 29.95 1014 10 16 0.00 0.00
1:53 pm 13:53 Sunny 66 18.9 10 -12.2 11 11 WNW 22 35 29.91 1013 10 16 0.00 0.00
2:53 pm 14:53 Sunny 63 17.2 9 -12.8 12 12 WNW 15 24 29.90 1012 10 16 0.00 0.00
3:53 pm 15:53 Sunny 60 15.6 6 -14.4 11 11 W 9 15 29.89 1012 10 16 0.00 0.00
4:53 pm 16:53 Clear 55 12.8 8 -13.3 15 15 NNW 10 17 29.90 1012 10 16 0.00 0.00
5:53 pm 17:53 Clear 53 11.7 8 -13.3 16 16 WNW 9 15 29.90 1013 10 16 0.00 0.00
6:53 pm 18:53 Clear 54 12.2 6 -14.4 14 14 W 7 11 29.90 1012 10 16 0.00 0.00
7:53 pm 19:53 Clear 45 7.2 6 -14.4 20 20 N 9 15 29.94 1014 10 16 0.00 0.00
8:53 pm 20:53 Clear 38 3.3 7 -13.9 27 27 Calm 29.96 1015 10 16 0.00 0.00
9:53 pm 21:53 Clear 38 3.3 8 -13.3 29 29 N 6 9 29.96 1014 10 16 0.00 0.00
10:53 pm 22:53 Clear 37 2.8 8 -13.3 30 30 NW 5 7 29.97 1015 10 16 0.00 0.00
11:53 pm 23:53 Clear 38 3.3 10 -12.2 31 31 WNW 10 17 29.97 1015 10 16 0.00 0.00

Powered by AerisWeather